Flag for Saudi Arabia Weather past 2 weeks in Qatif, Saudi Arabia

Now
90 °F

Clear.


Feels Like: 86 °F
Forecast: 89 / 110 °F
Wind: 9 mph from West

Location: King Fahd International Airport

Current Time: Jul 13, 2014 at 12:52:32 AM

Latest Report: Jul 13, 2014 at 12:00 AM


Visibility: 10 mi

Pressure: 29.47 "Hg

Humidity: 18%

Dew point: 41 °F

Location of QatifLocation

Historic Weather in Qatif — Graph

°F

Qatif temperature yesterday

Maximum temperature yesterday: 113 °F (at 1:00 PM)
Minimum temperature yesterday: 84 °F (at 5:00 AM)
Average temperature yesterday: 99 °F

Past Weeks' High & Low Weather Summary

 TemperatureHumidityPressure
High117 °F (Jul 1, 2:00 PM)84% (Jul 7, 12:00 AM)29.65 "Hg (Jul 7, 12:00 AM)
Low79 °F (Jun 29, 4:00 AM)3% (Jul 2, 1:00 PM)29.36 "Hg (Jul 4, 4:00 PM)
Average98 °F20%29.51 "Hg
* Reported Jun 27 11:00 PM — Jul 12 11:00 PM, Qatif, Weather by CustomWeather, © 2014

Note: Actual official high and low records may vary slightly from our data, if they occured in-between our weather recording intervals... More about our weather records

Advertising

Qatif weather history for previous 24 hours

 ConditionsComfort  
Time TempWeatherWind HumidityBarometerVisibility
11:00 PM
Jul 12
90 °FClear.7 mph21%29.47 "Hg10 mi
10:00 PM91 °FClear.5 mph24%29.50 "Hg10 mi
9:00 PM93 °FClear.5 mph23%29.50 "Hg10 mi
8:00 PM95 °FClear.6 mph22%29.47 "Hg10 mi
7:00 PM100 °FClear.6 mph17%29.47 "Hg10 mi
6:00 PM106 °FSunny.16 mph14%N/A10 mi
5:00 PM108 °FSunny.17 mph10%29.47 "Hg10 mi
4:00 PM109 °FSunny.21 mph8%29.47 "Hg10 mi
3:00 PM111 °FSunny.23 mph7%29.47 "Hg10 mi
2:00 PM113 °FSunny.21 mph7%29.50 "Hg10 mi
1:00 PM113 °FSunny.22 mph7%29.50 "Hg10 mi
12:00 PM111 °FSunny.22 mph7%29.53 "Hg10 mi
11:00 AM111 °FSunny.20 mph7%29.53 "Hg10 mi
10:00 AM109 °FSunny.18 mph9%29.53 "Hg10 mi
9:00 AM104 °FSunny.17 mph11%29.53 "Hg10 mi
8:00 AM99 °FSunny.13 mph12%29.56 "Hg10 mi
7:00 AM91 °FSunny.10 mph14%29.53 "Hg10 mi
6:00 AM88 °FSunny.12 mph15%29.53 "Hg10 mi
5:00 AM84 °FSunny.12 mph18%29.50 "Hg10 mi
4:00 AM86 °FClear.12 mph18%29.50 "Hg10 mi
3:00 AM90 °FClear.10 mph17%29.50 "Hg10 mi
2:00 AM90 °FClear.12 mph18%29.50 "Hg10 mi
1:00 AM88 °FClear.9 mph19%29.53 "Hg10 mi
12:00 AM90 °FClear.7 mph20%29.53 "Hg10 mi
Weather by CustomWeather, © 2014

See weather overviewHow to use our weather pages